W4SNA-3 Weather Reports


Display with metric or nautical units.
time (UTC)temp
F
wind
direction
speed
MPH
gust
MPH
rain 1hr
in
rain 24hr
in
rain mn
in
humidity
%
barometer
mb
20260904133013 84 0 0.0 2.0 0.00 0.00 0.00 71 1019.4
20260904132522 83 0 0.0 2.0 0.00 0.00 0.00 72 1019.3
20260904132013 83 0 0.0 2.0 0.00 0.00 0.00 73 1019.4
20260904131517 82 0 0.0 2.0 0.00 0.00 0.00 73 1019.4
20260904131013 82 0 0.0 2.0 0.00 0.00 0.00 74 1019.5
20260904130516 81 0 0.0 2.0 0.00 0.00 0.00 73 1019.4
20260904130031 81 56 1.0 2.0 0.00 0.00 0.00 74 1019.5
20260904125513 80 0 0.0 2.0 0.00 0.00 0.00 75 1019.5
20260904125014 80 0 0.0 0.0 0.00 0.00 0.00 76 1019.6
20260904124513 79 0 0.0 0.0 0.00 0.00 0.00 77 1019.5
20260904124014 78 0 0.0 2.0 0.00 0.00 0.00 78 1019.6
20260904123515 77 0 0.0 2.0 0.00 0.00 0.00 80 1019.6
20260904123019 77 0 0.0 3.0 0.00 0.00 0.00 81 1019.5
20260904122513 76 0 0.0 3.0 0.00 0.00 0.00 81 1019.4
20260904122017 75 0 0.0 2.0 0.00 0.00 0.00 83 1019.4
20260904121515 74 8 1.0 2.0 0.00 0.00 0.00 84 1019.3
20260904121017 73 0 0.0 3.0 0.00 0.00 0.00 85 1019.3
20260904120513 73 8 1.0 3.0 0.00 0.00 0.00 86 1019.3
20260904120013 72 0 0.0 3.0 0.00 0.00 0.00 86 1019.2
20260904115513 72 8 1.0 3.0 0.00 0.00 0.00 87 1019.2
20260904114800 72 8 1.0 3.0 0.00 0.00 0.00 87 1019.2
20260904114300 71 8 1.0 3.0 0.00 0.00 0.00 87 1019.1
20260904113642 71 8 1.0 3.0 0.00 0.00 0.00 87 1019.0
20260904113142 71 9 1.0 3.0 0.00 0.00 0.00 87 1019.0
20260904112642 71 19 1.0 3.0 0.00 0.00 0.00 87 1019.1
20260904112154 71 19 1.0 3.0 0.00 0.00 0.00 87 1019.1
20260904111642 71 19 1.0 3.0 0.00 0.00 0.00 87 1019.0
20260904111142 71 19 1.0 3.0 0.00 0.00 0.00 87 1019.0
20260904110642 71 19 1.0 2.0 0.00 0.00 0.00 87 1019.0
20260904110142 71 0 0.0 3.0 0.00 0.00 0.00 87 1019.0
20260904105642 71 0 0.0 3.0 0.00 0.00 0.00 87 1018.9
20260904105143 71 0 0.0 2.0 0.00 0.00 0.00 87 1018.9
20260904104645 71 0 0.0 2.0 0.00 0.00 0.00 87 1018.8
20260904104142 71 0 0.0 2.0 0.00 0.00 0.00 87 1018.9
20260904103642 71 0 0.0 2.0 0.00 0.00 0.00 87 1018.9
20260904103142 71 0 0.0 2.0 0.00 0.00 0.00 86 1018.9
20260904102654 71 0 0.0 2.0 0.00 0.00 0.00 86 1018.9
20260904102143 71 19 1.0 2.0 0.00 0.00 0.00 86 1018.9
20260904101642 71 0 0.0 2.0 0.00 0.00 0.00 86 1018.8
20260904101155 71 0 0.0 2.0 0.00 0.00 0.00 85 1018.9
20260904100331 72 0 0.0 1.0 0.00 0.00 0.00 85 1018.7
20260904095831 72 0 0.0 2.0 0.00 0.00 0.00 85 1018.5
20260904095331 72 0 0.0 2.0 0.00 0.00 0.00 85 1018.5
20260904094831 72 0 0.0 3.0 0.00 0.00 0.00 85 1018.5
20260904094332 72 0 0.0 3.0 0.00 0.00 0.00 84 1018.5
20260904093451 72 19 1.0 3.0 0.00 0.00 0.00 84 1018.6
20260904092951 72 21 1.0 3.0 0.00 0.00 0.00 84 1018.5
20260904092451 72 21 1.0 3.0 0.00 0.00 0.00 84 1018.5
20260904091951 72 22 1.0 4.0 0.00 0.00 0.00 84 1018.4
20260904091451 72 22 1.0 4.0 0.00 0.00 0.00 85 1018.5
20260904090953 72 46 1.0 3.0 0.00 0.00 0.00 85 1018.4
20260904090451 72 48 1.0 3.0 0.00 0.00 0.00 84 1018.3
20260904090003 72 49 1.0 3.0 0.00 0.00 0.00 84 1018.3
20260904085451 72 50 1.0 3.0 0.00 0.00 0.00 84 1018.2
20260904084951 72 54 1.0 3.0 0.00 0.00 0.00 84 1018.3
20260904084451 72 55 2.0 4.0 0.00 0.00 0.00 83 1018.2
20260904083951 72 56 2.0 4.0 0.00 0.00 0.00 83 1018.2
20260904083456 72 57 2.0 4.0 0.00 0.00 0.00 83 1018.3
20260904082951 72 58 2.0 4.0 0.00 0.00 0.00 83 1018.2
20260904082451 72 58 2.0 4.0 0.00 0.00 0.00 83 1018.3
20260904081954 72 58 2.0 4.0 0.00 0.00 0.00 82 1018.3
20260904081517 72 58 1.0 4.0 0.00 0.00 0.00 82 1018.2
20260904080951 72 58 2.0 4.0 0.00 0.00 0.00 82 1018.1
20260904080451 72 58 2.0 4.0 0.00 0.00 0.00 82 1018.1
20260904080006 72 60 2.0 3.0 0.00 0.00 0.00 82 1018.1
20260904075453 72 72 2.0 3.0 0.00 0.00 0.00 83 1018.1
20260904075000 72 77 1.0 5.0 0.00 0.00 0.00 83 1018.1
20260904074451 72 81 1.0 5.0 0.00 0.00 0.00 83 1018.1
20260904073951 72 81 1.0 3.0 0.00 0.00 0.00 83 1018.2
20260904073451 72 81 1.0 3.0 0.00 0.00 0.00 83 1018.1
20260904072952 72 82 1.0 3.0 0.00 0.00 0.00 83 1018.2
20260904072452 72 82 1.0 3.0 0.00 0.00 0.00 83 1018.2
20260904071954 72 82 1.0 3.0 0.00 0.00 0.00 83 1018.2
20260904071451 72 82 1.0 2.0 0.00 0.00 0.00 84 1018.3
20260904070951 72 82 1.0 3.0 0.00 0.00 0.00 84 1018.4
20260904070451 72 82 1.0 3.0 0.00 0.00 0.00 84 1018.4
20260904065952 72 82 1.0 3.0 0.00 0.00 0.00 85 1018.5
20260904065451 72 82 1.0 3.0 0.00 0.00 0.00 85 1018.5
20260904064952 72 82 1.0 3.0 0.00 0.00 0.00 85 1018.6
20260904064504 72 82 1.0 3.0 0.00 0.00 0.00 85 1018.6
20260904063951 72 82 1.0 3.0 0.00 0.00 0.00 85 1018.6
20260904063459 72 82 1.0 3.0 0.00 0.00 0.00 85 1018.6
20260904062951 72 0 0.0 2.0 0.00 0.00 0.00 85 1018.7
20260904062507 72 0 0.0 2.0 0.00 0.00 0.00 85 1018.8
20260904061954 72 0 0.0 2.0 0.00 0.00 0.00 85 1018.9
20260904061451 72 0 0.0 2.0 0.00 0.00 0.00 85 1019.0
20260904060951 72 0 0.0 2.0 0.00 0.00 0.00 85 1019.1
20260904060531 72 0 0.0 2.0 0.00 0.00 0.00 85 1019.2
20260904055951 72 0 0.0 2.0 0.00 0.00 0.00 85 1019.2
20260904055451 72 0 0.0 2.0 0.00 0.00 0.00 85 1019.5
20260904054954 72 0 0.0 1.0 0.00 0.00 0.00 85 1019.6
20260904054451 72 0 0.0 2.0 0.00 0.00 0.00 85 1019.6
20260904054021 72 0 0.0 2.0 0.00 0.00 0.00 85 1019.7
20260904053451 72 0 0.0 2.0 0.00 0.00 0.00 86 1019.8
20260904052951 72 0 0.0 2.0 0.00 0.00 0.00 86 1019.9
20260904052511 73 0 0.0 2.0 0.00 0.00 0.00 86 1020.0
20260904051951 73 0 0.0 2.0 0.00 0.00 0.00 85 1019.9
20260904051451 73 0 0.0 2.0 0.00 0.00 0.00 85 1020.0
20260904050626 73 0 0.0 1.0 0.00 0.00 0.00 85 1020.1
20260904050116 73 0 0.0 2.0 0.00 0.00 0.00 85 1020.1
20260904045616 73 0 0.0 2.0 0.00 0.00 0.00 85 1020.2
20260904045118 73 0 0.0 3.0 0.00 0.00 0.00 84 1020.2
20260904044616 74 0 0.0 3.0 0.00 0.00 0.00 84 1020.3
20260904044116 74 0 0.0 2.0 0.00 0.00 0.00 83 1020.2
20260904043616 74 0 0.0 2.0 0.00 0.00 0.00 83 1020.2
20260904043123 74 0 0.0 2.0 0.00 0.00 0.00 83 1020.3
20260904042616 74 0 0.0 2.0 0.00 0.00 0.00 82 1020.1
20260904042123 74 0 0.0 1.0 0.00 0.00 0.00 82 1020.2
20260904041618 74 0 0.0 1.0 0.00 0.00 0.00 82 1020.3
20260904041120 74 0 0.0 2.0 0.00 0.00 0.00 82 1020.3
20260904040626 74 0 0.0 2.0 0.00 0.00 0.00 82 1020.3
20260904040123 74 0 0.0 2.0 0.00 0.00 0.00 82 1020.1
20260904035616 74 0 0.0 2.0 0.00 0.00 0.00 82 1020.1
20260904034946 74 0 0.0 1.0 0.00 0.00 0.00 82 1020.1
20260904034446 75 0 0.0 1.0 0.00 0.00 0.00 82 1020.0
20260904033906 75 0 0.0 2.0 0.00 0.00 0.00 83 1020.0
20260904033406 75 0 0.0 2.0 0.00 0.00 0.00 82 1020.1
20260904032905 75 0 0.0 1.0 0.00 0.00 0.00 82 1020.2
20260904032407 75 0 0.0 1.0 0.00 0.00 0.00 82 1020.3
20260904031907 75 0 0.0 2.0 0.00 0.00 0.00 81 1020.1
20260904031406 75 0 0.0 2.0 0.00 0.00 0.00 81 1020.2
20260904030905 75 0 0.0 3.0 0.00 0.00 0.00 80 1020.1
20260904030407 75 0 0.0 3.0 0.00 0.00 0.00 80 1020.2
20260904025912 75 0 0.0 2.0 0.00 0.00 0.00 80 1020.1
20260904025017 75 0 0.0 2.0 0.00 0.00 0.00 79 1020.2
20260904024533 75 0 0.0 0.0 0.00 0.00 0.00 79 1020.2
20260904024017 75 0 0.0 0.0 0.00 0.00 0.00 79 1020.2
20260904023526 75 0 0.0 0.0 0.00 0.00 0.00 78 1020.2
20260904023019 75 0 0.0 0.0 0.00 0.00 0.00 78 1020.2
20260904022518 75 0 0.0 0.0 0.00 0.00 0.00 78 1020.2
20260904022027 75 0 0.0 0.0 0.00 0.00 0.00 77 1020.2
20260904021154 75 0 0.0 0.0 0.00 0.00 0.00 77 1020.3
20260904020657 75 0 0.0 0.0 0.00 0.00 0.00 76 1020.3
20260904020159 75 0 0.0 0.0 0.00 0.00 0.00 76 1020.3
20260904015654 75 0 0.0 0.0 0.00 0.00 0.00 75 1020.3
20260904015154 75 0 0.0 0.0 0.00 0.00 0.00 75 1020.3
20260904014655 75 0 0.0 0.0 0.00 0.00 0.00 75 1020.2
20260904014154 75 0 0.0 0.0 0.00 0.00 0.00 75 1020.2
20260904013654 75 0 0.0 0.0 0.00 0.00 0.00 75 1020.3
20260904013154 75 0 0.0 0.0 0.00 0.00 0.00 75 1020.3
20260904012654 75 0 0.0 0.0 0.00 0.00 0.00 75 1020.1
20260904012154 75 0 0.0 0.0 0.00 0.00 0.00 75 1020.1
20260904011654 75 0 0.0 0.0 0.00 0.00 0.00 74 1020.0
20260904011155 75 0 0.0 0.0 0.00 0.00 0.00 75 1020.1
20260904010654 75 0 0.0 0.0 0.00 0.00 0.00 76 1019.9
20260904010157 76 0 0.0 0.0 0.00 0.00 0.00 76 1019.8
20260904005654 76 0 0.0 0.0 0.00 0.00 0.00 77 1019.7
20260904005154 76 0 0.0 0.0 0.00 0.00 0.00 78 1019.8
20260904004654 76 0 0.0 0.0 0.00 0.00 0.00 78 1019.7
20260904004154 76 0 0.0 0.0 0.00 0.00 0.00 78 1019.6
20260904003654 76 0 0.0 0.0 0.00 0.00 0.00 78 1019.6
20260904002859 76 0 0.0 0.0 0.00 0.00 0.00 77 1019.5
20260904002400 76 0 0.0 0.0 0.00 0.00 0.00 77 1019.4
20260904001859 76 0 0.0 0.0 0.00 0.00 0.00 76 1019.4
20260904001400 76 0 0.0 0.0 0.00 0.00 0.00 76 1019.1
20260904000859 76 0 0.0 0.0 0.00 0.00 0.00 75 1019.0
20260904000417 77 0 0.0 0.0 0.00 0.00 0.00 75 1019.0
20260903235859 77 0 0.0 0.0 0.00 0.00 0.00 74 1018.9
20260903235400 77 0 0.0 0.0 0.00 0.00 0.00 74 1018.8
20260903234859 77 0 0.0 0.0 0.00 0.00 0.00 74 1018.8
20260903234415 78 0 0.0 0.0 0.00 0.00 0.00 74 1018.9
20260903233859 78 0 0.0 0.0 0.00 0.00 0.00 74 1018.9
20260903233400 78 0 0.0 0.0 0.00 0.00 0.00 75 1018.9
20260903232900 79 0 0.0 0.0 0.00 0.00 0.00 75 1018.7
20260903232401 79 0 0.0 0.0 0.00 0.00 0.00 75 1018.7
20260903231900 79 0 0.0 0.0 0.00 0.00 0.00 74 1018.8
20260903231401 79 0 0.0 0.0 0.00 0.00 0.00 74 1018.7
20260903230623 80 0 0.0 0.0 0.00 0.00 0.00 75 1018.8
20260903230123 80 0 0.0 0.0 0.00 0.00 0.00 75 1018.7
20260903225623 80 0 0.0 0.0 0.00 0.00 0.00 74 1018.8
20260903225124 80 0 0.0 0.0 0.00 0.00 0.00 74 1018.7
20260903224623 81 0 0.0 0.0 0.00 0.00 0.00 74 1018.6
20260903224125 81 0 0.0 0.0 0.00 0.00 0.00 73 1018.7
20260903223623 81 0 0.0 0.0 0.00 0.00 0.00 72 1018.7
20260903223123 81 0 0.0 0.0 0.00 0.00 0.00 72 1018.7
20260903222622 82 0 0.0 0.0 0.00 0.00 0.00 71 1018.8
20260903222123 82 0 0.0 0.0 0.00 0.00 0.00 69 1018.6
20260903221623 82 0 0.0 0.0 0.00 0.00 0.00 69 1018.7
20260903221123 82 0 0.0 0.0 0.00 0.00 0.00 68 1018.8
20260903220337 83 0 0.0 0.0 0.00 0.00 0.00 67 1018.7
20260903215805 84 0 0.0 0.0 0.00 0.00 0.00 65 1018.7
20260903215305 84 0 0.0 0.0 0.00 0.00 0.00 67 1018.7
20260903214802 84 0 0.0 0.0 0.00 0.00 0.00 66 1018.8
20260903214302 85 0 0.0 0.0 0.00 0.00 0.00 65 1018.8
20260903213805 85 0 0.0 0.0 0.00 0.00 0.00 64 1018.8
20260903213304 85 0 0.0 0.0 0.00 0.00 0.00 63 1018.7
20260903212814 85 0 0.0 0.0 0.00 0.00 0.00 63 1018.8
20260903212314 85 0 0.0 0.0 0.00 0.00 0.00 64 1018.8
20260903211804 85 0 0.0 0.0 0.00 0.00 0.00 63 1019.0
20260903211307 85 0 0.0 1.0 0.00 0.00 0.00 64 1019.1
20260903210802 85 0 0.0 1.0 0.00 0.00 0.00 65 1019.1
20260903210304 85 0 0.0 0.0 0.00 0.00 0.00 63 1019.1
20260903205802 85 0 0.0 0.0 0.00 0.00 0.00 62 1019.3
20260903205306 85 0 0.0 1.0 0.00 0.00 0.00 63 1019.2
20260903204802 85 0 0.0 1.0 0.00 0.00 0.00 62 1019.2
20260903204304 85 0 0.0 0.0 0.00 0.00 0.00 64 1019.3
20260903203803 86 0 0.0 1.0 0.00 0.00 0.00 62 1019.2
20260903203302 86 0 0.0 1.0 0.00 0.00 0.00 64 1019.3
20260903202820 86 0 0.0 2.0 0.00 0.00 0.00 64 1019.3
20260903202306 86 0 0.0 2.0 0.00 0.00 0.00 62 1019.3
20260903201803 86 0 0.0 1.0 0.00 0.00 0.00 60 1019.4
20260903201302 88 0 0.0 1.0 0.00 0.00 0.00 62 1019.4
20260903200927 89 0 0.0 3.0 0.00 0.00 0.00 59 1019.7
20260903200302 89 0 0.0 3.0 0.00 0.00 0.00 59 1019.7
20260903195816 90 0 0.0 2.0 0.00 0.00 0.00 56 1019.7
20260903195306 90 0 0.0 1.0 0.00 0.00 0.00 55 1019.7
20260903194802 91 0 0.0 2.0 0.00 0.00 0.00 57 1019.8
20260903194302 91 0 0.0 3.0 0.00 0.00 0.00 56 1019.7
20260903193829 90 0 0.0 3.0 0.00 0.00 0.00 58 1019.7
20260903193302 90 0 0.0 2.0 0.00 0.00 0.00 56 1019.8
20260903192802 90 0 0.0 1.0 0.00 0.00 0.00 59 1019.8
20260903192306 90 0 0.0 2.0 0.00 0.00 0.00 59 1019.8
20260903191802 89 0 0.0 2.0 0.00 0.00 0.00 62 1019.8
20260903190832 89 0 0.0 0.0 0.00 0.00 0.00 61 1019.9
20260903190332 88 0 0.0 2.0 0.00 0.00 0.00 60 1020.0
20260903185833 88 0 0.0 2.0 0.00 0.00 0.00 55 1020.1
20260903185332 89 0 0.0 1.0 0.00 0.00 0.00 62 1020.2
20260903184832 89 0 0.0 2.0 0.00 0.00 0.00 62 1020.2
20260903184332 88 0 0.0 2.0 0.00 0.00 0.00 58 1020.2
20260903183832 88 0 0.0 0.0 0.00 0.00 0.00 59 1020.2
20260903183332 88 0 0.0 3.0 0.00 0.00 0.00 61 1020.4
20260903182832 87 0 0.0 3.0 0.00 0.00 0.00 63 1020.4
20260903182331 86 0 0.0 3.0 0.00 0.00 0.00 62 1020.4
20260903181832 86 0 0.0 3.0 0.00 0.00 0.00 60 1020.4
20260903181345 86 0 0.0 2.0 0.00 0.00 0.00 65 1020.5
20260903180832 86 0 0.0 2.0 0.00 0.00 0.00 62 1020.5
20260903180332 86 0 0.0 0.0 0.00 0.00 0.00 66 1020.7
20260903175832 86 0 0.0 0.0 0.00 0.00 0.00 65 1020.6
20260903175332 86 0 0.0 0.0 0.00 0.00 0.00 61 1020.6
20260903174832 86 0 0.0 0.0 0.00 0.00 0.00 63 1020.7
20260903174400 86 0 0.0 2.0 0.00 0.00 0.00 60 1020.6
20260903173832 87 0 0.0 2.0 0.00 0.00 0.00 59 1020.7
20260903173333 87 0 0.0 3.0 0.00 0.00 0.00 55 1020.7
20260903172918 88 0 0.0 3.0 0.00 0.00 0.00 56 1020.9
20260903172055 90 0 0.0 5.0 0.00 0.00 0.00 55 1020.8
20260903171555 90 81 1.0 5.0 0.00 0.00 0.00 55 1020.8
20260903171103 89 0 0.0 3.0 0.00 0.00 0.00 55 1020.8
20260903170556 89 0 0.0 3.0 0.00 0.00 0.00 58 1020.8
20260903170116 90 83 1.0 3.0 0.00 0.00 0.00 53 1020.8
20260903165525 90 0 0.0 4.0 0.00 0.00 0.00 55 1020.8
20260903165057 90 68 1.0 4.0 0.00 0.00 0.00 56 1020.9
20260903164525 91 0 0.0 3.0 0.00 0.00 0.00 57 1020.9
20260903164025 91 61 1.0 4.0 0.00 0.00 0.00 55 1021.0
20260903163525 90 0 0.0 4.0 0.00 0.00 0.00 55 1021.0
20260903163025 90 0 0.0 4.0 0.00 0.00 0.00 56 1021.0
20260903162526 90 0 0.0 5.0 0.00 0.00 0.00 55 1021.2
20260903162025 90 95 1.0 5.0 0.00 0.00 0.00 57 1021.1
20260903161532 90 86 1.0 3.0 0.00 0.00 0.00 59 1021.1
20260903161026 89 0 0.0 2.0 0.00 0.00 0.00 60 1021.1
20260903160526 89 0 0.0 2.0 0.00 0.00 0.00 61 1021.2
20260903160025 89 0 0.0 2.0 0.00 0.00 0.00 61 1021.2
20260903155517 89 68 1.0 5.0 0.00 0.00 0.00 58 1021.3
20260903155014 89 0 0.0 6.0 0.00 0.00 0.00 59 1021.3
20260903154508 89 0 0.0 6.0 0.00 0.00 0.00 59 1021.3
20260903154008 89 77 2.0 5.0 0.00 0.00 0.00 60 1021.3
20260903153508 89 32 1.0 4.0 0.00 0.00 0.00 61 1021.3
20260903153008 89 33 1.0 4.0 0.00 0.00 0.00 63 1021.3
20260903152314 89 116 1.0 4.0 0.00 0.00 0.00 62 1021.2
20260903151824 88 67 1.0 4.0 0.00 0.00 0.00 65 1021.3
20260903151314 88 0 0.0 4.0 0.00 0.00 0.00 65 1021.2
20260903150814 88 0 0.0 5.0 0.00 0.00 0.00 66 1021.3
20260903150314 88 0 0.0 5.0 0.00 0.00 0.00 65 1021.3
20260903145846 88 84 1.0 3.0 0.00 0.00 0.00 64 1021.3
20260903145249 88 0 0.0 3.0 0.00 0.00 0.00 63 1021.4
20260903144800 88 0 0.0 3.0 0.00 0.00 0.00 65 1021.4
20260903144250 87 0 0.0 3.0 0.00 0.00 0.00 66 1021.4
20260903143800 87 0 0.0 2.0 0.00 0.00 0.00 67 1021.4
20260903143249 86 100 1.0 4.0 0.00 0.00 0.00 66 1021.4
20260903142749 86 105 1.0 5.0 0.00 0.00 0.00 67 1021.2
20260903142249 85 54 2.0 6.0 0.00 0.00 0.00 66 1021.2
20260903141814 85 0 0.0 6.0 0.00 0.00 0.00 68 1021.2
20260903141249 85 73 1.0 5.0 0.00 0.00 0.00 67 1021.1
20260903140751 84 0 0.0 7.0 0.00 0.00 0.00 69 1021.0
20260903140250 84 63 1.0 7.0 0.00 0.00 0.00 68 1021.0
20260903135749 84 51 1.0 4.0 0.00 0.00 0.00 68 1021.0
20260903135103 84 40 1.0 3.0 0.00 0.00 0.00 69 1020.9
20260903134603 83 0 0.0 3.0 0.00 0.00 0.00 70 1021.0
20260903134105 83 0 0.0 2.0 0.00 0.00 0.00 72 1021.1
20260903133603 82 0 0.0 2.0 0.00 0.00 0.00 73 1021.1